When you browse on this site, cookies collect data to enhance your experience and personalize the content and advertising you see.
Visit our Privacy Policy to learn more. By continuing to use the site, you agree to this use of cookies and data.
  • In United Kingdom
  • List of Countries
  • For 7 days
  • Water Temperature
  • Weather Map
  • Weather Widgets
  • user-avatar
    Login

    Hourly Weather Apolyanka

    Today, 23 September, Monday

    Time Temperature Precipitation Wind Pressure Humidity
    00:00 +12°C° 0 mm 3 mps 743 mmHg 77%
    01:00 +11°C° 0 mm 3 mps 744 mmHg 78%
    02:00 +11°C° 0 mm 3 mps 744 mmHg 79%
    03:00 +10°C° 0 mm 3 mps 744 mmHg 82%
    04:00 +10°C° 0 mm 3 mps 744 mmHg 84%
    05:00 +10°C° 0 mm 2 mps 744 mmHg 87%
    06:00 +10°C° 0 mm 3 mps 744 mmHg 85%
    07:00 +11°C° 0 mm 3 mps 745 mmHg 83%
    08:00 +12°C° 0 mm 3 mps 745 mmHg 80%
    09:00 +12°C° 0 mm 3 mps 745 mmHg 75%
    10:00 +13°C° 0 mm 4 mps 745 mmHg 69%
    11:00 +14°C° 0 mm 4 mps 746 mmHg 64%
    12:00 +14°C° 0 mm 4 mps 746 mmHg 63%
    13:00 +13°C° 0 mm 4 mps 745 mmHg 62%
    14:00 +13°C° 0 mm 5 mps 745 mmHg 61%
    15:00 +13°C° 0 mm 5 mps 745 mmHg 59%
    16:00 +12°C° 0 mm 5 mps 745 mmHg 58%
    17:00 +12°C° 0 mm 5 mps 745 mmHg 56%
    18:00 +11°C° 0 mm 4 mps 745 mmHg 58%
    19:00 +10°C° 0 mm 4 mps 746 mmHg 59%
    20:00 +9°C° 0 mm 3 mps 746 mmHg 60%
    21:00 +9°C° 0 mm 3 mps 746 mmHg 57%
    22:00 +9°C° 0 mm 3 mps 746 mmHg 54%
    23:00 +10°C° 0 mm 3 mps 746 mmHg 51%

    Tomorrow, 24 September, Tuesday

    Time Temperature Precipitation Wind Pressure Humidity
    00:00 +10°C° 0 mm 4 mps 746 mmHg 49%
    01:00 +10°C° 0 mm 4 mps 746 mmHg 46%
    02:00 +8°C° 0 mm 4 mps 746 mmHg 44%
    03:00 +8°C° 0 mm 4 mps 746 mmHg 43%
    04:00 +8°C° 0 mm 4 mps 746 mmHg 42%
    05:00 +8°C° 0 mm 4 mps 746 mmHg 42%
    06:00 +8°C° 0 mm 4 mps 746 mmHg 41%
    07:00 +8°C° 0 mm 4 mps 746 mmHg 41%
    08:00 +8°C° 0 mm 4 mps 747 mmHg 40%
    09:00 +11°C° 0 mm 4 mps 746 mmHg 39%
    10:00 +12°C° 0 mm 4 mps 746 mmHg 37%
    11:00 +14°C° 0 mm 4 mps 746 mmHg 35%
    12:00 +15°C° 0 mm 4 mps 746 mmHg 35%
    13:00 +17°C° 0 mm 3 mps 746 mmHg 35%
    14:00 +17°C° 0 mm 3 mps 745 mmHg 36%
    15:00 +17°C° 0 mm 3 mps 745 mmHg 37%
    16:00 +17°C° 0 mm 2 mps 745 mmHg 38%
    17:00 +16°C° 0 mm 2 mps 744 mmHg 40%
    18:00 +14°C° 0 mm 3 mps 745 mmHg 40%
    19:00 +13°C° 0 mm 3 mps 745 mmHg 40%
    20:00 +12°C° 0 mm 4 mps 745 mmHg 40%
    21:00 +12°C° 0 mm 4 mps 745 mmHg 37%
    22:00 +11°C° 0 mm 4 mps 745 mmHg 34%
    23:00 +11°C° 0 mm 4 mps 745 mmHg 30%

    Day after tomorrow, 25 September, Wednesday

    Time Temperature Precipitation Wind Pressure Humidity
    00:00 +11°C° 0 mm 4 mps 745 mmHg 30%
    01:00 +11°C° 0 mm 4 mps 745 mmHg 30%
    02:00 +11°C° 0 mm 4 mps 745 mmHg 30%
    03:00 +11°C° 0 mm 4 mps 745 mmHg 32%
    04:00 +10°C° 0 mm 4 mps 745 mmHg 34%
    05:00 +10°C° 0 mm 4 mps 745 mmHg 36%
    06:00 +11°C° 0 mm 4 mps 745 mmHg 35%
    07:00 +11°C° 0 mm 4 mps 745 mmHg 34%
    08:00 +11°C° 0 mm 4 mps 745 mmHg 34%
    09:00 +13°C° 0 mm 4 mps 745 mmHg 33%
    10:00 +15°C° 0 mm 4 mps 745 mmHg 32%
    11:00 +17°C° 0 mm 5 mps 745 mmHg 31%
    12:00 +19°C° 0 mm 4 mps 745 mmHg 32%
    13:00 +20°C° 0 mm 4 mps 745 mmHg 33%
    14:00 +21°C° 0 mm 4 mps 744 mmHg 33%
    15:00 +21°C° 0 mm 3 mps 744 mmHg 36%
    16:00 +20°C° 0 mm 3 mps 744 mmHg 38%
    17:00 +19°C° 0 mm 2 mps 743 mmHg 40%
    18:00 +19°C° 0 mm 3 mps 744 mmHg 41%
    19:00 +18°C° 0 mm 3 mps 744 mmHg 43%
    20:00 +17°C° 0 mm 4 mps 744 mmHg 44%
    21:00 +15°C° 0 mm 4 mps 744 mmHg 45%
    22:00 +15°C° 0 mm 4 mps 744 mmHg 47%
    23:00 +14°C° 0 mm 4 mps 744 mmHg 49%

    26 September, Thursday

    Time Temperature Precipitation Wind Pressure Humidity
    00:00 +14°C° 0 mm 4 mps 744 mmHg 50%
    01:00 +14°C° 0 mm 4 mps 743 mmHg 51%
    02:00 +14°C° 0 mm 4 mps 743 mmHg 52%
    03:00 +14°C° 0 mm 4 mps 743 mmHg 56%
    04:00 +14°C° 0 mm 4 mps 743 mmHg 60%
    05:00 +14°C° 0 mm 5 mps 743 mmHg 64%
    06:00 +14°C° 0.1 mm 5 mps 743 mmHg 62%
    07:00 +14°C° 0.1 mm 5 mps 743 mmHg 60%
    08:00 +14°C° 0.1 mm 5 mps 743 mmHg 59%
    09:00 +14°C° 0.3 mm 5 mps 744 mmHg 61%
    10:00 +14°C° 0.3 mm 5 mps 744 mmHg 62%
    11:00 +13°C° 0.3 mm 5 mps 744 mmHg 64%
    12:00 +13°C° 0.3 mm 4 mps 744 mmHg 63%
    13:00 +13°C° 0.3 mm 4 mps 743 mmHg 62%
    14:00 +13°C° 0.3 mm 4 mps 743 mmHg 62%
    15:00 +13°C° 0.5 mm 3 mps 743 mmHg 65%
    16:00 +12°C° 0.5 mm 3 mps 743 mmHg 68%
    17:00 +12°C° 0.5 mm 3 mps 743 mmHg 71%
    18:00 +12°C° 0.9 mm 3 mps 743 mmHg 75%
    19:00 +13°C° 0.9 mm 2 mps 743 mmHg 78%
    20:00 +13°C° 0.9 mm 2 mps 743 mmHg 82%
    21:00 +12°C° 1 mm 2 mps 743 mmHg 83%
    22:00 +12°C° 1 mm 2 mps 743 mmHg 85%
    23:00 +12°C° 1 mm 2 mps 743 mmHg 86%

    27 September, Friday

    Time Temperature Precipitation Wind Pressure Humidity
    00:00 +12°C° 0.3 mm 2 mps 743 mmHg 86%
    01:00 +12°C° 0.3 mm 2 mps 743 mmHg 87%
    02:00 +12°C° 0.3 mm 1 mps 743 mmHg 87%
    03:00 +12°C° 0.2 mm 2 mps 743 mmHg 87%
    04:00 +12°C° 0.2 mm 2 mps 744 mmHg 87%
    05:00 +12°C° 0.2 mm 2 mps 744 mmHg 87%
    06:00 +12°C° 0.2 mm 2 mps 744 mmHg 86%
    07:00 +12°C° 0.2 mm 1 mps 744 mmHg 85%
    08:00 +12°C° 0.2 mm 1 mps 744 mmHg 83%
    09:00 +13°C° 0.1 mm 2 mps 744 mmHg 83%
    10:00 +13°C° 0.1 mm 2 mps 744 mmHg 82%
    11:00 +14°C° 0.1 mm 2 mps 745 mmHg 82%
    12:00 +15°C° 0 mm 2 mps 745 mmHg 80%
    13:00 +15°C° 0 mm 2 mps 745 mmHg 79%
    14:00 +16°C° 0 mm 2 mps 745 mmHg 78%
    15:00 +16°C° 0 mm 2 mps 745 mmHg 79%
    16:00 +16°C° 0 mm 2 mps 745 mmHg 79%
    17:00 +16°C° 0 mm 2 mps 745 mmHg 79%
    18:00 +15°C° 0 mm 2 mps 745 mmHg 83%
    19:00 +14°C° 0 mm 2 mps 745 mmHg 87%
    20:00 +13°C° 0 mm 2 mps 746 mmHg 91%
    21:00 +13°C° 0 mm 2 mps 746 mmHg 92%
    22:00 +13°C° 0 mm 2 mps 746 mmHg 93%
    23:00 +12°C° 0 mm 1 mps 746 mmHg 93%

    28 September, Saturday

    Time Temperature Precipitation Wind Pressure Humidity
    00:00 +12°C° 0 mm 1 mps 746 mmHg 94%
    01:00 +12°C° 0 mm 1 mps 746 mmHg 94%
    02:00 +12°C° 0 mm 1 mps 746 mmHg 95%
    03:00 +12°C° 0 mm 1 mps 747 mmHg 95%
    04:00 +11°C° 0 mm 1 mps 747 mmHg 95%
    05:00 +10°C° 0 mm 0 mps 747 mmHg 95%
    06:00 +12°C° 0 mm 1 mps 747 mmHg 92%
    07:00 +13°C° 0 mm 1 mps 747 mmHg 89%
    08:00 +14°C° 0 mm 1 mps 747 mmHg 86%
    09:00 +16°C° 0 mm 1 mps 747 mmHg 79%
    10:00 +18°C° 0 mm 1 mps 748 mmHg 72%
    11:00 +20°C° 0 mm 1 mps 748 mmHg 65%
    12:00 +20°C° 0 mm 2 mps 747 mmHg 60%
    13:00 +21°C° 0 mm 2 mps 747 mmHg 55%
    14:00 +21°C° 0 mm 2 mps 747 mmHg 50%
    15:00 +21°C° 0 mm 2 mps 746 mmHg 53%
    16:00 +20°C° 0 mm 2 mps 746 mmHg 55%
    17:00 +20°C° 0 mm 1 mps 746 mmHg 58%
    18:00 +20°C° 0 mm 1 mps 746 mmHg 60%
    19:00 +19°C° 0 mm 1 mps 746 mmHg 62%
    20:00 +18°C° 0 mm 1 mps 746 mmHg 65%
    21:00 +18°C° 0 mm 1 mps 746 mmHg 66%
    22:00 +16°C° 0 mm 1 mps 746 mmHg 67%
    23:00 +16°C° 0 mm 2 mps 746 mmHg 69%
    Show more